Wind_Speed
15 15 15 13 11 8 9 11 11 9 9 11 15 19 22 24 26 29 33 36 40 43 44 45 47 48 46 46 47 46 38 32 26 20 19 21 22 23 23 23 24 25 24 21
14 14 14 7 8 10 11 15 18 18 18 17 21 24 27 29 32 34 36 36 36 38 39 40 40 40 43 45 42 37 31 28 26 21 20 21 20 20 21 21 22 23 24 22
10 12 12 8 8 12 15 19 22 23 21 22 25 29 32 34 34 34 34 34 33 33 35 36 37 40 42 41 38 33 28 25 24 22 20 19 19 18 19 18 18 18 20 21
7 8 8 6 6 10 14 19 22 24 24 24 28 32 32 34 34 31 30 30 30 32 34 36 38 39 39 38 36 33 30 27 25 24 21 21 21 17 17 19 20 18 18 19
2 1 3 4 5 8 11 13 20 22 21 22 24 25 22 22 22 22 24 26 26 29 33 36 37 38 39 39 38 35 33 31 30 29 28 27 25 24 24 24 25 24 21 20
3 5 8 11 16 18 15 9 9 13 14 16 16 17 17 16 15 19 22 23 25 28 32 37 40 41 41 42 41 41 40 39 39 38 37 34 32 32 32 30 30 29 27 25
3 2 3 7 11 13 11 9 6 7 11 13 15 16 17 17 19 23 23 24 28 34 38 42 44 44 44 45 47 48 48 47 46 45 44 42 40 39 38 38 36 35 33 31
2 2 4 6 8 10 14 16 17 16 17 17 19 20 22 25 26 26 27 30 34 39 43 45 47 48 49 50 50 50 50 49 49 48 47 46 45 44 44 44 44 43 42 39
6 3 8 10 11 12 16 16 15 16 16 18 21 24 26 29 31 33 34 36 39 43 47 51 53 55 56 57 58 56 55 53 53 53 52 51 50 49 49 49 49 50 50 49
10 9 11 12 13 13 14 14 13 14 15 18 22 27 30 33 35 38 41 44 47 50 52 54 56 59 60 62 63 63 62 60 59 58 58 57 55 54 53 53 53 54 54 54
10 9 9 10 11 12 15 16 16 17 19 22 27 32 36 38 40 43 46 48 50 51 53 55 57 59 61 63 65 67 68 68 67 67 66 65 63 61 59 58 57 57 57 57
11 11 12 12 13 16 18 18 17 19 22 26 31 35 39 40 41 43 45 47 50 52 55 58 59 61 62 64 67 70 72 74 75 74 73 71 69 67 65 64 63 62 61 61
12 12 12 10 12 16 18 17 18 21 25 29 33 36 38 39 41 44 46 48 51 55 58 60 62 64 66 68 70 72 72 71 68 65 62 61 60 59 58 59 61 62 64 65
13 14 13 12 12 14 15 17 20 23 26 29 32 35 37 40 43 45 47 51 55 58 61 64 67 69 69 68 66 63 58 54 51 49 47 45 44 41 37 37 40 45 51 58
16 15 14 15 16 17 18 22 25 27 27 29 30 34 38 41 44 47 50 55 58 62 64 65 64 61 57 53 51 49 49 50 49 46 42 38 34 31 28 28 29 31 34 39
16 15 13 15 17 19 20 25 28 28 27 27 30 35 40 42 44 47 51 56 60 61 59 56 53 51 51 51 53 53 53 52 50 47 43 39 36 35 35 36 35 34 34 35
14 15 15 18 21 21 25 29 31 32 30 33 37 41 44 46 48 52 58 61 59 55 53 52 52 53 54 56 57 58 58 57 55 52 49 46 45 44 45 44 43 40 38 36
15 19 21 24 26 28 30 32 34 35 35 37 40 44 48 51 53 56 59 58 54 52 52 53 54 55 56 58 59 61 61 60 58 56 55 53 53 52 51 49 48 46 44 41
20 22 24 27 29 30 32 35 36 36 38 40 43 47 50 53 54 55 56 54 51 51 53 56 57 58 60 62 63 64 62 60 58 57 56 56 57 56 55 52 50 48 46 44
21 21 23 26 28 31 35 38 38 38 38 42 45 49 52 56 58 59 56 50 48 51 55 57 59 61 63 64 64 62 58 56 54 52 50 50 53 55 55 54 52 49 47 44
18 20 23 26 29 33 37 40 40 39 41 43 48 53 57 58 60 61 53 46 48 52 55 58 60 63 65 64 60 56 53 51 50 47 44 43 43 46 49 50 50 49 48 44
19 23 26 29 31 34 38 40 42 42 43 47 51 54 57 57 60 58 49 45 48 52 54 57 61 64 65 62 57 53 51 50 47 43 39 36 35 36 39 42 44 45 45 44
20 23 27 29 32 35 39 43 45 45 46 48 51 54 56 57 59 55 46 45 48 51 53 57 61 64 64 61 56 52 50 48 43 36 31 28 26 26 28 31 34 36 38 39
19 22 24 27 31 36 40 42 43 43 44 47 51 54 55 57 58 52 45 45 47 50 52 57 61 63 63 60 56 52 49 45 39 31 25 22 21 21 22 24 25 27 30 32
18 21 23 26 30 34 37 40 42 42 44 47 51 53 54 56 58 51 44 45 47 49 53 58 61 63 62 60 56 51 48 45 39 30 24 20 19 19 18 19 20 21 23 25
19 22 25 29 31 33 36 40 43 44 45 49 52 53 53 56 57 50 44 44 46 49 53 57 60 61 61 59 55 51 49 47 42 33 23 17 14 14 14 14 15 16 17 20
Wind_Direction
265 263 258 265 266 258 235 213 225 236 242 248 241 238 241 246 254 264 274 277 277 280 287 293 298 303 305 307 311 312 307 310 316 321 324 320 300 286 282 284 287 286 281 278
268 269 269 259 258 246 233 223 229 241 247 245 240 240 245 252 260 267 273 277 275 278 285 292 299 302 305 309 311 311 312 314 321 324 324 325 314 297 289 289 287 281 273 268
304 307 305 279 261 266 247 235 234 240 250 259 259 258 260 264 271 273 275 278 279 279 284 291 296 300 302 305 308 312 317 322 323 322 321 321 320 302 288 288 289 280 268 260
290 296 296 281 272 274 252 242 244 245 253 262 267 271 271 275 278 279 277 278 282 285 289 293 295 297 298 301 306 311 314 316 314 313 313 313 315 303 288 289 290 287 274 264
275 355 93 83 41 359 330 267 254 256 264 270 274 278 291 297 287 283 281 280 284 289 293 295 298 300 300 302 305 308 309 310 309 306 303 302 299 294 289 288 284 281 278 268
47 70 74 53 26 5 349 327 280 263 272 282 286 297 316 324 302 295 293 290 288 292 295 298 301 303 304 305 306 307 306 305 305 303 300 295 290 285 283 281 279 273 270 269
34 337 24 34 20 8 349 336 318 285 294 306 309 317 325 320 311 308 305 297 295 298 299 300 302 304 304 304 305 305 304 302 301 299 297 294 289 284 281 277 274 270 267 265
87 279 331 355 5 355 347 333 327 324 324 320 315 317 315 311 312 311 306 304 304 304 304 304 304 304 302 300 301 301 300 298 295 293 290 288 286 283 279 276 273 269 267 264
55 319 327 336 338 336 334 330 322 320 317 315 313 312 309 312 312 312 311 308 306 305 305 306 306 305 304 303 303 301 298 296 293 291 289 285 281 278 274 272 269 267 266 264
17 354 335 334 327 323 321 329 325 323 324 320 315 314 316 320 322 319 316 314 312 311 311 310 308 307 307 305 303 301 300 297 295 292 290 287 283 278 273 268 265 263 262 261
347 342 333 318 301 299 302 312 320 320 321 320 318 317 320 322 321 319 317 315 314 312 311 310 309 308 306 304 302 301 299 297 295 293 290 287 283 278 275 271 267 262 259 256
344 338 331 318 309 305 309 318 320 319 318 316 316 316 318 318 318 318 316 315 314 313 312 311 309 307 304 302 299 298 297 296 295 294 291 288 285 280 276 271 267 262 258 255
340 336 331 314 300 303 312 320 319 317 315 312 311 313 318 319 321 320 319 318 316 315 313 311 308 306 303 301 299 298 297 297 296 296 295 293 289 285 279 273 268 262 257 254
343 343 339 331 327 331 331 328 323 320 316 314 316 319 322 324 324 324 322 319 317 316 315 312 309 307 304 303 302 301 301 300 299 298 298 297 295 290 282 275 269 263 258 254
351 354 351 342 344 348 342 336 332 329 326 323 325 325 327 329 328 326 323 320 319 318 315 312 311 310 308 307 305 303 301 299 298 295 293 291 290 286 280 277 276 273 268 261
347 353 355 348 344 347 341 335 332 328 328 329 330 332 332 331 329 326 323 322 321 319 318 318 318 315 311 308 305 303 301 299 295 291 286 280 275 274 275 277 278 277 275 271
334 348 354 350 346 343 342 338 335 333 336 337 337 335 333 332 332 330 328 327 325 323 323 321 317 314 311 308 305 302 299 296 291 286 281 275 270 269 271 273 275 276 275 272
343 350 352 349 346 349 342 339 338 337 338 338 337 336 335 335 335 333 328 326 325 325 324 323 321 318 314 311 307 302 298 294 289 283 277 273 270 269 269 269 270 270 271 268
350 348 346 344 343 340 340 343 341 339 339 338 338 338 336 333 334 333 329 328 328 328 327 326 325 322 319 315 310 306 302 298 291 284 277 271 267 265 265 265 265 265 265 265
344 339 335 335 336 338 340 341 341 339 339 338 337 336 335 335 336 336 332 330 329 329 328 328 328 326 324 320 315 312 309 305 300 292 284 276 267 262 260 259 259 259 260 260
329 326 327 333 337 339 340 341 339 338 339 338 337 338 338 337 336 335 333 330 329 330 331 332 333 332 330 326 322 318 315 313 307 300 291 281 273 263 258 256 255 255 255 255
326 326 330 335 338 339 339 339 339 340 340 339 339 337 336 337 337 336 333 331 332 333 336 338 338 338 336 333 328 324 321 318 314 306 297 288 278 266 259 256 254 253 252 250
324 324 329 332 333 336 340 342 342 341 341 339 337 335 337 339 340 338 335 335 336 337 340 343 344 343 341 340 336 332 330 327 321 313 304 294 282 271 264 259 255 251 248 245
317 318 323 326 333 340 342 342 339 338 337 336 336 337 339 342 342 339 336 338 340 341 343 347 347 347 347 346 345 343 341 339 334 324 311 297 286 277 269 261 254 248 244 241
314 314 322 332 338 340 340 339 338 337 337 337 337 340 342 343 343 340 339 341 342 343 346 349 350 351 352 352 352 352 352 351 346 336 321 308 293 279 269 260 251 244 239 235
318 323 330 336 337 338 339 340 341 340 339 339 340 342 344 344 345 343 340 342 343 345 349 352 354 355 355 356 357 358 358 357 355 349 337 322 306 286 270 257 246 237 232 227
Height
5876 5877 5877 5878 5878 5878 5878 5877 5877 5878 5879 5879 5877 5876 5875 5876 5876 5876 5875 5871 5865 5860 5858 5856 5853 5850 5845 5841 5837 5834 5827 5821 5818 5820 5819 5819 5819 5819 5818 5816 5815 5814 5814 5813
5874 5874 5873 5873 5874 5874 5874 5874 5874 5874 5875 5875 5873 5873 5873 5872 5872 5872 5872 5869 5866 5862 5858 5854 5850 5845 5841 5837 5833 5828 5822 5818 5815 5814 5814 5814 5813 5812 5810 5809 5808 5807 5807 5807
5871 5871 5870 5870 5871 5872 5872 5871 5870 5870 5871 5871 5870 5869 5869 5868 5867 5866 5865 5864 5862 5859 5856 5852 5847 5842 5837 5832 5828 5823 5818 5814 5811 5810 5810 5809 5807 5806 5805 5804 5803 5802 5801 5801
5868 5868 5868 5868 5869 5869 5869 5868 5867 5867 5867 5866 5865 5862 5863 5861 5860 5859 5858 5857 5855 5852 5849 5845 5840 5835 5830 5826 5822 5817 5813 5810 5807 5806 5804 5802 5801 5801 5801 5800 5799 5798 5796 5794
5867 5867 5867 5867 5867 5866 5865 5865 5864 5863 5863 5862 5860 5858 5859 5857 5855 5854 5852 5850 5848 5844 5840 5836 5831 5826 5822 5818 5814 5810 5807 5803 5801 5798 5797 5795 5794 5794 5794 5794 5793 5791 5790 5788
5869 5868 5867 5866 5865 5864 5862 5863 5862 5861 5860 5859 5858 5856 5854 5851 5850 5848 5846 5843 5840 5836 5832 5826 5822 5818 5813 5808 5804 5801 5797 5794 5792 5790 5788 5787 5786 5785 5784 5784 5784 5783 5782 5781
5869 5868 5867 5865 5864 5864 5863 5863 5862 5860 5858 5856 5853 5851 5850 5846 5844 5843 5840 5836 5832 5827 5823 5818 5812 5807 5802 5798 5794 5790 5787 5784 5781 5779 5777 5775 5775 5774 5773 5772 5772 5772 5771 5771
5869 5869 5867 5865 5864 5863 5863 5861 5860 5857 5855 5852 5849 5847 5845 5841 5839 5836 5832 5828 5823 5818 5812 5807 5802 5797 5792 5787 5783 5779 5775 5770 5767 5765 5764 5762 5761 5760 5759 5759 5758 5758 5759 5759
5869 5869 5867 5865 5864 5863 5861 5858 5856 5854 5852 5850 5846 5843 5839 5835 5831 5828 5823 5819 5813 5807 5801 5795 5788 5782 5776 5771 5766 5762 5759 5755 5751 5748 5746 5745 5744 5743 5743 5742 5742 5742 5743 5744
5869 5868 5867 5865 5863 5861 5859 5856 5854 5851 5849 5846 5843 5839 5835 5830 5824 5818 5812 5806 5800 5794 5788 5782 5774 5767 5760 5753 5746 5741 5738 5736 5734 5731 5728 5725 5723 5723 5723 5723 5723 5723 5724 5725
5868 5868 5866 5864 5861 5858 5855 5854 5851 5849 5846 5842 5838 5836 5830 5826 5820 5813 5805 5798 5791 5785 5778 5771 5763 5755 5747 5738 5730 5723 5717 5712 5709 5707 5704 5703 5702 5701 5701 5701 5701 5703 5704 5706
5867 5866 5864 5861 5858 5854 5851 5850 5848 5845 5842 5838 5833 5832 5824 5820 5813 5807 5799 5791 5783 5775 5767 5759 5750 5742 5733 5725 5717 5708 5699 5692 5685 5680 5676 5674 5673 5673 5674 5676 5677 5679 5681 5684
5866 5863 5861 5859 5858 5854 5849 5847 5844 5840 5837 5832 5828 5826 5818 5811 5805 5798 5790 5781 5772 5764 5755 5745 5735 5726 5716 5707 5698 5689 5681 5673 5666 5659 5653 5648 5645 5644 5645 5647 5649 5652 5655 5659
5864 5860 5858 5855 5852 5850 5847 5844 5841 5837 5833 5828 5822 5816 5810 5804 5796 5788 5779 5770 5760 5751 5740 5729 5719 5708 5698 5688 5678 5670 5662 5655 5648 5643 5638 5633 5628 5625 5624 5625 5625 5627 5629 5634
5863 5859 5854 5851 5849 5847 5844 5840 5836 5832 5827 5822 5816 5810 5803 5796 5788 5779 5769 5758 5748 5738 5727 5715 5703 5693 5683 5673 5665 5657 5650 5643 5636 5631 5626 5621 5617 5615 5614 5613 5613 5613 5612 5613
5861 5857 5854 5851 5848 5845 5842 5837 5832 5826 5821 5816 5811 5804 5797 5789 5781 5771 5760 5749 5737 5725 5713 5701 5690 5680 5671 5662 5653 5645 5637 5629 5622 5617 5613 5609 5606 5604 5602 5601 5601 5600 5600 5599
5858 5855 5852 5849 5845 5843 5838 5832 5825 5819 5814 5808 5802 5795 5786 5778 5769 5757 5745 5733 5722 5711 5701 5691 5680 5670 5660 5650 5640 5630 5621 5613 5607 5601 5597 5593 5591 5589 5587 5586 5586 5586 5587 5587
5854 5851 5848 5845 5842 5837 5836 5827 5819 5812 5806 5800 5793 5786 5776 5766 5757 5747 5733 5721 5710 5700 5690 5679 5668 5657 5646 5635 5623 5612 5603 5594 5587 5581 5577 5574 5572 5571 5570 5570 5570 5570 5571 5572
5850 5847 5844 5840 5837 5834 5828 5821 5814 5807 5800 5793 5786 5777 5768 5759 5750 5740 5724 5711 5699 5688 5678 5666 5654 5642 5629 5616 5603 5591 5581 5571 5563 5557 5553 5551 5550 5550 5550 5551 5552 5553 5555 5556
5848 5845 5842 5838 5834 5828 5824 5816 5808 5802 5794 5787 5779 5770 5760 5748 5737 5728 5714 5702 5691 5680 5668 5656 5643 5629 5614 5599 5584 5570 5559 5548 5540 5534 5530 5527 5526 5527 5528 5530 5533 5535 5538 5540
5847 5844 5840 5835 5829 5824 5817 5809 5803 5797 5790 5781 5770 5759 5748 5738 5727 5716 5704 5693 5683 5671 5659 5645 5631 5616 5600 5582 5566 5552 5540 5529 5520 5512 5507 5505 5504 5504 5506 5509 5513 5516 5520 5524
5844 5839 5834 5830 5824 5821 5812 5805 5797 5790 5781 5771 5761 5752 5742 5732 5720 5707 5694 5684 5674 5663 5650 5637 5622 5605 5587 5568 5552 5538 5526 5514 5503 5494 5489 5486 5485 5486 5488 5491 5494 5498 5502 5507
5840 5836 5830 5826 5822 5815 5806 5797 5788 5781 5773 5765 5757 5748 5737 5725 5713 5700 5688 5678 5667 5655 5642 5628 5612 5595 5577 5558 5541 5527 5514 5501 5490 5481 5475 5472 5471 5472 5474 5476 5479 5482 5487 5492
5836 5831 5828 5823 5816 5808 5800 5793 5786 5778 5771 5763 5753 5742 5730 5718 5706 5693 5681 5671 5660 5649 5635 5621 5605 5588 5570 5552 5534 5519 5505 5492 5480 5472 5466 5463 5462 5462 5463 5464 5467 5470 5475 5480
5831 5827 5823 5818 5812 5806 5800 5792 5784 5776 5767 5758 5748 5736 5724 5712 5699 5686 5675 5665 5655 5643 5629 5614 5598 5581 5564 5546 5530 5514 5500 5486 5475 5465 5460 5456 5454 5454 5454 5456 5458 5461 5466 5471
5825 5821 5817 5813 5807 5802 5796 5788 5779 5770 5762 5752 5741 5730 5719 5706 5694 5681 5669 5660 5650 5638 5625 5610 5594 5578 5561 5544 5528 5513 5498 5484 5472 5461 5455 5451 5448 5448 5448 5450 5452 5455 5460 5464